Location: Chiroubles
(46.1812°N, 4.6660°E)
Time: 11:45:12
(UTC+00:00)

Courier 1B Rocket - All Passes

Search period start: 30 November 2020 00:00
Search period end: 10 December 2020 00:00
Orbit: 920 x 1202 km, 28.2° (Epoch: 29 November)

Date Brightness Start Highest point End Pass type
(mag) Time Alt. Az. Time Alt. Az. Time Alt. Az.
30 Nov - 04:47:20 10° SSW 04:51:30 15° SSE 04:55:39 10° SE visible
30 Nov - 06:38:43 10° SW 06:43:56 20° S 06:49:03 10° SE daylight
30 Nov - 08:32:19 10° SW 08:36:19 15° SSW 08:40:13 10° SSE daylight
01 Dec - 03:47:43 10° S 03:50:42 12° SSE 03:53:41 10° SE visible
01 Dec - 05:37:53 10° SW 05:43:04 19° S 05:48:11 10° SE visible
01 Dec - 07:30:44 10° SW 07:35:31 18° S 07:40:11 10° SSE daylight
02 Dec - 04:37:21 10° SSW 04:42:12 18° S 04:47:03 10° SE visible
02 Dec - 06:29:29 10° SW 06:34:40 19° S 06:39:47 10° SE visible
02 Dec - 08:24:04 10° SW 08:27:00 12° SSW 08:29:54 10° S daylight
03 Dec - 03:37:11 10° SSW 03:41:21 15° SSE 03:45:34 10° SE visible
03 Dec - 05:28:29 10° SW 05:33:48 20° S 05:39:04 10° SE visible
03 Dec - 07:21:59 10° SW 07:26:13 16° SSW 07:30:24 10° SSE daylight
04 Dec - 02:37:41 10° S 02:40:34 12° SSE 02:43:29 10° SE visible
04 Dec - 04:27:45 10° SW 04:32:55 19° S 04:38:07 10° SE visible
04 Dec - 06:20:29 10° SW 06:25:23 18° S 06:30:15 10° SSE visible
05 Dec - 03:27:17 10° SSW 03:32:03 18° S 03:36:53 10° SE visible
05 Dec - 05:19:19 10° SW 05:24:32 19° S 05:29:44 10° SE visible
05 Dec - 07:13:45 10° SW 07:16:54 13° SSW 07:20:01 10° S daylight
06 Dec - 02:27:15 10° SSW 02:31:14 15° SSE 02:35:19 10° SE visible
06 Dec - 04:18:25 10° SW 04:23:38 20° S 04:28:56 10° SE visible
06 Dec - 06:11:48 10° SW 06:16:05 16° SSW 06:20:21 10° SSE visible
07 Dec - 01:27:56 10° S 01:30:29 12° SSE 01:33:04 10° SE visible
07 Dec - 03:17:47 10° SW 03:22:46 19° S 03:27:53 10° SE visible
07 Dec - 05:10:24 10° SW 05:15:14 18° S 05:20:07 10° SSE visible
08 Dec - 02:17:26 10° SSW 02:21:57 17° S 02:26:35 10° SE visible
08 Dec - 04:09:19 10° SW 04:14:22 19° S 04:19:30 10° SE visible
08 Dec - 06:03:40 10° SW 06:06:45 13° SSW 06:09:51 10° S visible
09 Dec - 01:17:31 10° SSW 01:21:10 14° SSE 01:24:56 10° SE night (unlit)
09 Dec - 03:08:32 10° SW 03:13:31 19° S 03:18:38 10° SE visible
09 Dec - 05:01:49 10° SW 05:05:56 15° SSW 05:10:07 10° SSE visible
